Location: downtown San Diego
(32.7310°N, 117.1990°W)
Time: 18:38:01
(UTC-07:00)

Cosmos 1378 - Pass Details

Date: 14 June 2018
Orbit: 495 x 503 km, 82.5° (Epoch: 20 August)

Event Time Altitude Azimuth Distance (km) Brightness Sun altitude
Exits shadow 20:56:29 13° 156° (SSE) 1,501 5.0 -11.1°
Maximum altitude 20:59:23 36° 92° (E) 809 3.8 -11.6°
Drops below altitude 10° 21:02:48 10° 25° (NNE) 1,701 6.0 -12.2°
Sets 21:05:02 0° 17° (NNE) 2,586 7.1 -12.6°
